User: anonymous   Login
Location: ??
(35.5052°N, 139.7262°E)
Time: 15:38:54
(UTC+00:00)
Language:

SJ 16-02 - Orbit

View from above orbital plane
View from above orbital plane
View from above satellite
View from above satellite

Ground track
Ground track

The orbit data is extracted from the following two-line orbital elements,

1 41634U 16043A   21269.44307693  .00000135  00000-0  18637-4 0  9996
2 41634  75.0018 281.3320 0008879 255.7233 104.2968 14.85846066284449
Epoch (UTC): 26 September 2021 10:38:01
Eccentricity: 0.0008879
inclination: 75.0018°
perigee height: 605 km
apogee height: 617 km
right ascension of ascending node: 281.3320°
argument of perigee: 255.7233°
revolutions per day: 14.85846066
mean anomaly at epoch: 104.2968°
orbit number at epoch: 28444

The dashed part of the orbit path shows where the satellite is in the earth's shadow,  

DLR